Weather History for LEMD - October, 2012

Change the Weather History Date:

Sunday, October 14, 2012

  Actual Average Record
Temperature  
Mean Temperature 56 °F -  
Max Temperature 66 °F 61 °F 86 °F (2011)
Min Temperature 46 °F 43 °F 42 °F (2007)
Degree Days  
Heating Degree Days 9    
Growing Degree Days 6 (Base 50)    
Moisture  
Dew Point 45 °F    
Average Humidity 63    
Maximum Humidity 94    
Minimum Humidity 35    
Precipitation  
Precipitation 0.00 in 0.06 in - ()
Sea Level Pressure  
Sea Level Pressure 29.84 in    
Wind  
Wind Speed 7 mph ()    
Max Wind Speed 25 mph    
Max Gust Speed 32 mph    
Visibility 6.9 miles    
Events Rain    
Averages and records for this station are not official NWS values.
T = Trace of Precipitation, MM = Missing Value Source: Averaged Metar Reports

Daily Weather History Graph

Daily Weather History Graph

Search for Another Location

Airport or City:

Trip Planner

Search our weather history database for the weather conditions in past years. The results will help you decide how hot, cold, wet, or windy it might be!

Date:

Astronomy

Oct. 14, 2012 Rise Set
Actual Time 8:24 AM CEST 7:35 PM CEST
Civil Twilight 7:56 AM CEST 8:02 PM CEST
Nautical Twilight 7:25 AM CEST 8:34 PM CEST
Astronomical Twilight 6:53 AM CEST 9:05 PM CEST
Moon 7:06 AM CEST (10/14) 6:46 PM CEST (10/14)
Length of Visible Light 12h 05m
Length of Day
11h 10m
Waning Crescent, 2% of the Moon is Illuminated
Oct 14
Waning Crescent
Oct 15
New
Oct 22
First Quarter
Oct 29
Full
Nov 7
Last Quarter

Hourly Weather History & Observations

Time (CEST) Temp. Dew Point Humidity Pressure Visibility Wind Dir Wind Speed Gust Speed Precip Events Conditions
12:00 AM 60.8 °F 41.0 °F 48% 29.98 in - West 6.9 mph - N/A   Clear
12:30 AM 57.2 °F 42.8 °F 59% 29.98 in - SE 8.1 mph - N/A   Clear
1:30 AM 57.2 °F 41.0 °F 55% 29.98 in - South 3.5 mph - N/A   Clear
2:00 AM 53.6 °F 41.0 °F 62% 29.95 in - SSW 2.3 mph - N/A   Clear
2:30 AM 55.4 °F 41.0 °F 58% 29.95 in - SE 5.8 mph - N/A   Clear
3:30 AM 51.8 °F 41.0 °F 67% 29.95 in - Calm Calm - N/A   Clear
4:00 AM 51.8 °F 41.0 °F 67% 29.92 in - Variable 2.3 mph - N/A   Clear
5:00 AM 50.0 °F 44.6 °F 82% 29.92 in - North 3.5 mph - N/A   Clear
5:30 AM 50.0 °F 44.6 °F 82% 29.92 in - Calm Calm - N/A   Clear
6:00 AM 50.0 °F 42.8 °F 76% 29.92 in - Calm Calm - N/A   Clear
6:30 AM 50.0 °F 42.8 °F 76% 29.92 in - SSE 2.3 mph - N/A   Clear
7:00 AM 50.0 °F 42.8 °F 76% 29.92 in - Calm Calm - N/A   Clear
7:30 AM 50.0 °F 44.6 °F 82% 29.92 in - North 4.6 mph - N/A   Clear
8:00 AM 47 °F 42 °F 75% 29.92 in 19 mi North 2.3 mph - -   Clear
8:00 AM 48.2 °F 42.8 °F 82% 29.89 in - Variable 1.2 mph - N/A   Clear
8:30 AM 46.4 °F 42.8 °F 87% 29.89 in - Variable 2.3 mph - N/A   Clear
9:00 AM 48.2 °F 42.8 °F 82% 29.89 in 6.2 mi NW 3.5 mph - N/A   Partly Cloudy
9:30 AM 48.2 °F 44.6 °F 87% 29.89 in 6.2 mi Variable 1.2 mph - N/A   Partly Cloudy
10:00 AM 53.6 °F 44.6 °F 72% 29.89 in 6.2 mi Variable 1.2 mph - N/A   Partly Cloudy
10:30 AM 55.4 °F 42.8 °F 63% 29.89 in 6.2 mi South 6.9 mph - N/A   Partly Cloudy
11:00 AM 57.2 °F 42.8 °F 59% 29.89 in 6.2 mi South 9.2 mph 21.9 mph N/A   Partly Cloudy
11:30 AM 60.8 °F 41.0 °F 48% 29.89 in 6.2 mi SSW 10.4 mph 28.8 mph N/A   Partly Cloudy
12:00 PM 62.6 °F 39.2 °F 42% 29.86 in 6.2 mi SW 13.8 mph 32.2 mph N/A   Partly Cloudy
12:30 PM 64.4 °F 39.2 °F 40% 29.86 in 6.2 mi SW 13.8 mph 27.6 mph N/A   Partly Cloudy
1:00 PM 66.2 °F 41.0 °F 40% 29.86 in 6.2 mi SW 15.0 mph 28.8 mph N/A   Partly Cloudy
1:30 PM 66.2 °F 41.0 °F 40% 29.83 in 6.2 mi WSW 15.0 mph 32.2 mph N/A   Partly Cloudy
2:00 PM 64 °F 43 °F 35% 29.78 in 19 mi SW 17.3 mph - -   Scattered Clouds
2:00 PM 66.2 °F 42.8 °F 43% 29.83 in 6.2 mi SW 16.1 mph - N/A   Partly Cloudy
2:30 PM 64.4 °F 42.8 °F 45% 29.80 in 6.2 mi SW 15.0 mph - N/A   Partly Cloudy
3:00 PM 66.2 °F 42.8 °F 43% 29.80 in 6.2 mi SW 15.0 mph - N/A   Partly Cloudy
3:30 PM 66.2 °F 44.6 °F 46% 29.77 in 6.2 mi SW 15.0 mph - N/A   Partly Cloudy
4:00 PM 66.2 °F 42.8 °F 43% 29.77 in 6.2 mi West 11.5 mph - N/A   Partly Cloudy
4:30 PM 66.2 °F 42.8 °F 43% 29.77 in 6.2 mi WSW 15.0 mph 26.5 mph N/A   Partly Cloudy
5:00 PM 66.2 °F 46.4 °F 49% 29.74 in 6.2 mi WSW 15.0 mph - N/A   Partly Cloudy
5:30 PM 66.2 °F 50.0 °F 56% 29.74 in 6.2 mi WSW 17.3 mph - N/A   Partly Cloudy
6:00 PM 66.2 °F 50.0 °F 56% 29.71 in 6.2 mi SW 16.1 mph 28.8 mph N/A   Partly Cloudy
6:30 PM 64.4 °F 51.8 °F 64% 29.74 in 6.2 mi WSW 19.6 mph 31.1 mph N/A   Scattered Clouds
7:00 PM 64.4 °F 53.6 °F 68% 29.74 in 6.2 mi West 19.6 mph - N/A Rain Rain
7:30 PM 62.6 °F 53.6 °F 72% 29.77 in 6.2 mi West 18.4 mph - N/A Rain Rain
8:00 PM 58 °F 45 °F 52% 29.70 in 9 mi WSW 15.0 mph - - Rain Light Rain
8:00 PM 60.8 °F 48.2 °F 63% 29.74 in 6.2 mi WSW 15.0 mph - N/A Rain Light Rain
8:30 PM 60.8 °F 48.2 °F 63% 29.74 in 6.2 mi WSW 13.8 mph - N/A   Scattered Clouds
9:00 PM 59.0 °F 48.2 °F 67% 29.74 in 6.2 mi WSW 13.8 mph 25.3 mph N/A   Scattered Clouds
9:12 PM 57.2 °F 50.0 °F 77% 29.77 in 3.1 mi WNW 25.3 mph - N/A Rain Heavy Rain
9:30 PM 53.6 °F 48.2 °F 82% 29.77 in 5.6 mi Variable 2.3 mph - N/A Rain Rain
10:00 PM 53.6 °F 51.8 °F 94% 29.77 in 5.6 mi Variable 2.3 mph - N/A Rain Light Rain
10:30 PM 53.6 °F 51.8 °F 94% 29.80 in 6.2 mi Variable 2.3 mph - N/A   Partly Cloudy
11:00 PM 53.6 °F 48.2 °F 82% 29.80 in 6.2 mi Calm Calm - N/A   Partly Cloudy